EW9808 Weather Reports


Display with metric or nautical units.
time (UTC)temp
F
wind
direction
speed
MPH
gust
MPH
rain 1hr
in
rain 24hr
in
rain mn
in
humidity
%
barometer
mb
20260504213056 70 288 12.0 27.0 0.00 0.00 0.00 32 1005.2
20260504211553 70 265 12.0 26.0 0.00 0.00 0.00 32 1005.2
20260504210105 71 306 16.0 29.0 0.00 0.00 0.00 31 1005.2
20260504204556 71 340 11.0 27.0 0.00 0.00 0.00 31 1005.2
20260504203101 71 247 17.0 26.0 0.00 0.00 0.00 32 1005.2
20260504201540 71 323 6.0 25.0 0.00 0.00 0.00 32 1005.2
20260504200036 70 279 13.0 23.0 0.00 0.00 0.00 32 1005.2
20260504194536 69 304 13.0 28.0 0.00 0.00 0.00 32 1005.3
20260504193035 70 242 11.0 25.0 0.00 0.00 0.00 31 1005.4
20260504191529 70 296 14.0 30.0 0.00 0.00 0.00 30 1005.3
20260504190024 69 283 14.0 24.0 0.00 0.00 0.00 30 1005.5
20260504184519 69 257 18.0 27.0 0.00 0.00 0.00 30 1005.8
20260504183015 69 286 12.0 26.0 0.00 0.00 0.00 30 1005.9
20260504181512 69 309 12.0 30.0 0.00 0.00 0.00 31 1005.9
20260504180040 68 242 16.0 28.0 0.00 0.00 0.00 32 1006.0
20260504174536 68 286 21.0 34.0 0.00 0.00 0.00 30 1006.1
20260504173029 68 314 17.0 34.0 0.00 0.00 0.00 32 1006.3
20260504171526 67 263 16.0 31.0 0.00 0.00 0.00 32 1006.5
20260504081525 46 269 5.0 8.0 0.00 0.01 0.01 52 1009.5
20260504070103 45 255 5.0 8.0 0.00 0.01 0.01 52 1009.3
20260504044520 43 286 5.0 8.0 0.00 0.01 0.01 51 1009.4
20260504043016 43 280 5.0 9.0 0.00 0.01 0.01 50 1009.4
20260504041511 42 274 5.0 9.0 0.00 0.01 0.01 48 1009.3
20260504040007 43 257 5.0 9.0 0.00 0.01 0.01 50 1009.3
20260504034501 43 266 5.0 8.0 0.00 0.01 0.01 49 1009.2
20260504033059 43 251 5.0 7.0 0.00 0.01 0.01 51 1009.1
20260504031558 44 267 4.0 7.0 0.00 0.01 0.01 52 1009.1
20260504030049 45 261 4.0 7.0 0.00 0.01 0.01 52 1009.0
20260504024541 46 238 4.0 6.0 0.00 0.01 0.01 51 1008.9
20260504023036 46 260 4.0 5.0 0.00 0.01 0.01 50 1008.9
20260504021531 46 277 4.0 5.0 0.00 0.01 0.01 50 1008.9
20260504020030 47 274 4.0 6.0 0.00 0.01 0.01 49 1008.8
20260504014600 46 278 4.0 6.0 0.00 0.01 0.01 50 1008.7
20260504013053 46 261 3.0 6.0 0.00 0.01 0.01 51 1008.7
20260504011542 47 260 4.0 5.0 0.00 0.01 0.01 49 1008.5
20260504010038 48 290 3.0 5.0 0.00 0.01 0.01 48 1008.3
20260504004533 49 279 2.0 4.0 0.00 0.01 0.01 47 1008.1
20260504003029 49 274 3.0 5.0 0.00 0.01 0.01 46 1008.0
20260504001602 49 298 1.0 4.0 0.00 0.01 0.01 46 1007.7
20260504000052 49 346 2.0 7.0 0.00 0.01 0.01 45 1007.7
20260503234517 50 355 4.0 8.0 0.00 0.01 0.01 44 1007.6
20260503233019 51 313 4.0 10.0 0.00 0.01 0.01 44 1007.3
20260503231505 51 13 4.0 12.0 0.00 0.01 0.01 43 1007.2
20260503230100 51 41 7.0 19.0 0.00 0.01 0.01 42 1007.0
20260503224556 51 9 7.0 22.0 0.00 0.01 0.01 42 1006.8
20260503223051 52 338 6.0 18.0 0.00 0.01 0.01 41 1006.6
20260503221553 51 24 11.0 24.0 0.00 0.01 0.01 40 1006.5
20260503220039 52 342 10.0 23.0 0.00 0.01 0.01 40 1006.3
20260503214536 52 316 8.0 25.0 0.00 0.01 0.01 40 1006.2